Simultaneous Nadir Overpasses (SNOs) Predictions

Prediction of SNOs between LANDSAT-8 and METOP-A Satellite Orbit:

Table of predicted SNOs for the next 14.0 days since TLE Epoch: 1/16/2021
Index Date (LANDSAT-8) Time (LANDSAT-8) Lat,Lon (LANDSAT-8) SZA (LANDSAT-8 ) Date (METOP-A) Time (METOP-A) Lat,Lon (METOP-A) SZA (METOP-A ) Distance(km) Time Diff (sec)
1 01/16/2021 03:42:41 81.42, 169.28 104.44 01/16/2021 03:43:42 81.43, 169.29 104.48 1.37 61
2 01/18/2021 22:27:28 -81.42, 68.22 76.12 01/18/2021 22:27:24 -81.43, 68.28 76.11 1.14 4
3 01/18/2021 23:16:54 81.43,-124.03 103.89 01/18/2021 23:18:04 81.42,-124.12 103.91 1.67 70
4 01/21/2021 17:12:13 81.44, -32.67 103.30 01/21/2021 17:11:05 81.43, -32.83 103.25 2.81 68
5 01/21/2021 18:01:40 -81.43, 134.90 76.72 01/21/2021 18:01:45 -81.42, 134.88 76.73 1.38 5
6 01/24/2021 12:46:27 81.43, 33.56 102.59 01/24/2021 12:45:27 81.43, 33.73 102.59 2.78 60
7 01/24/2021 13:35:54 -81.43,-158.85 77.43 01/24/2021 13:36:08 -81.43,-158.93 77.43 1.42 14
8 01/27/2021 08:20:40 81.43, 100.14 101.89 01/27/2021 08:19:49 81.42, 100.27 101.87 2.61 51



Historial Predications of SNOs between LANDSAT-8 and METOP-A
